Yakima, WA

12:18 AM PDT on June 21, 2018 (GMT -0700)
Yakima Air Term-McAllister

Weather History for KYKM - November, 2017

Change the Weather History Date:

Friday, November 10, 2017

  Actual Average Record
Temperature  
Mean Temperature 39 °F 40 °F  
Max Temperature 45 °F 51 °F 73 °F (1989)
Min Temperature 33 °F 28 °F 13 °F (1986)
Degree Days  
Heating Degree Days 26 26  
Month to date heating degree days 255 239  
Since 1 July heating degree days 816 943  
Cooling Degree Days 0 0  
Month to date cooling degree days 0 0  
Year to date cooling degree days 1054 472  
Moisture  
Dew Point 37 °F    
Average Humidity 90    
Maximum Humidity 96    
Minimum Humidity 83    
Precipitation  
Precipitation 0.09 in 0.03 in 1.01 in (1983)
Month to date precipitation 0.69 0.30  
Year to date precipitation 9.43 5.97  
Snow  
Snow 0.00 in 0.00 in 1.00 in (1995)
Month to date snowfall 0.4 0.3  
Year to date snowfall 29.5 9.0  
Since 1 July snowfall 0.4 0.4  
Snow Depth 0.00 in    
Sea Level Pressure  
Sea Level Pressure 29.93 in    
Wind  
Wind Speed 3 mph (West)    
Max Wind Speed 9 mph    
Max Gust Speed 10 mph    
Visibility 8 miles    
Events Rain    
T = Trace of Precipitation, MM = Missing Value Source: NWS Daily Summary

Daily Weather History Graph

Daily Weather History Graph

Search for Another Location

Airport or City:

Astronomy

Nov. 10, 2017 Rise Set
Actual Time 6:57 AM PST 4:34 PM PST
Civil Twilight 6:25 AM PST 5:06 PM PST
Nautical Twilight 5:48 AM PST 5:42 PM PST
Astronomical Twilight 5:13 AM PST 6:18 PM PST
Moon 11:29 PM PST (11/10) 1:11 PM PST (11/10)
Length of Visible Light 10h 41m
Length of Day
9h 36m
Waning Gibbous, 50% of the Moon is Illuminated
Nov 10
Waning Gibbous
Nov 10
Last Quarter
Nov 18
New
Nov 26
First Quarter
Dec 3
Full

Hourly Weather History & Observations

Time (PST) Temp. Windchill Dew Point Humidity Pressure Visibility Wind Dir Wind Speed Gust Speed Precip Events Conditions
12:53 AM 34.0 °F 28.8 °F 32.0 °F 92% 29.91 in 7.0 mi WNW 5.8 mph - N/A   Clear
1:53 AM 34.0 °F 28.0 °F 32.0 °F 92% 29.91 in 7.0 mi West 6.9 mph - N/A   Scattered Clouds
2:01 AM 34.0 °F 28.0 °F 32.0 °F 92% 29.89 in 7.0 mi West 6.9 mph - N/A   Mostly Cloudy
2:09 AM 34.0 °F 28.0 °F 30.9 °F 89% 29.88 in 8.0 mi West 6.9 mph - N/A   Scattered Clouds
2:53 AM 34.0 °F 28.8 °F 32.0 °F 92% 29.90 in 9.0 mi West 5.8 mph - N/A   Clear
3:40 AM 34.0 °F 28.8 °F 32.0 °F 92% 29.87 in 10.0 mi West 5.8 mph - N/A   Scattered Clouds
3:53 AM 34.0 °F 29.8 °F 32.0 °F 92% 29.90 in 9.0 mi West 4.6 mph - N/A   Mostly Cloudy
4:53 AM 35.1 °F 31.0 °F 33.1 °F 92% 29.90 in 10.0 mi West 4.6 mph - N/A   Overcast
5:53 AM 36.0 °F 31.1 °F 34.0 °F 93% 29.90 in 6.0 mi West 5.8 mph - 0.00 in Rain Light Rain
6:53 AM 37.0 °F 31.6 °F 35.1 °F 93% 29.90 in 7.0 mi West 6.9 mph - 0.03 in Rain Light Rain
7:53 AM 37.9 °F 34.4 °F 35.1 °F 89% 29.91 in 7.0 mi West 4.6 mph - 0.00 in Rain Light Rain
8:27 AM 39.0 °F 35.7 °F 36.0 °F 89% 29.90 in 7.0 mi West 4.6 mph - 0.00 in Rain Light Rain
8:53 AM 39.0 °F 35.7 °F 36.0 °F 89% 29.93 in 6.0 mi West 4.6 mph - 0.01 in Rain Light Rain
9:53 AM 39.9 °F 36.7 °F 37.0 °F 89% 29.94 in 7.0 mi West 4.6 mph - 0.01 in Rain Light Rain
10:53 AM 41.0 °F 38.0 °F 37.9 °F 89% 29.94 in 5.0 mi West 4.6 mph - 0.02 in Rain Light Rain
11:05 AM 42.1 °F 39.2 °F 37.9 °F 85% 29.92 in 6.0 mi West 4.6 mph - 0.01 in Rain Light Rain
11:36 AM 42.1 °F 39.2 °F 37.9 °F 85% 29.92 in 7.0 mi WNW 4.6 mph - 0.02 in Rain Light Rain
11:44 AM 42.1 °F 39.2 °F 39.0 °F 89% 29.92 in 8.0 mi WNW 4.6 mph - 0.02 in Rain Light Rain
11:53 AM 42.1 °F 38.4 °F 39.0 °F 89% 29.94 in 9.0 mi WNW 5.8 mph - 0.02 in   Overcast
12:23 PM 43.0 °F 40.3 °F 37.9 °F 82% 29.91 in 10.0 mi WNW 4.6 mph - 0.00 in Rain Light Rain
12:53 PM 44.1 °F 41.5 °F 39.0 °F 82% 29.94 in 10.0 mi WNW 4.6 mph - 0.00 in Rain Light Rain
1:08 PM 44.1 °F 42.5 °F 39.0 °F 82% 29.91 in 10.0 mi NNW 3.5 mph - 0.00 in Rain Light Rain
1:53 PM 45.0 °F - 37.9 °F 76% 29.94 in 10.0 mi Calm Calm - 0.00 in   Overcast
2:30 PM 45.0 °F - 39.0 °F 80% 29.92 in 10.0 mi Calm Calm - N/A   Overcast
2:53 PM 45.0 °F - 39.0 °F 80% 29.95 in 10.0 mi Calm Calm - N/A   Overcast
3:53 PM 45.0 °F 43.5 °F 39.9 °F 82% 29.96 in 9.0 mi East 3.5 mph - N/A   Overcast
4:45 PM 45.0 °F - 39.9 °F 82% 29.95 in 10.0 mi Calm Calm - N/A   Overcast
4:53 PM 44.1 °F - 39.9 °F 85% 29.98 in 10.0 mi Calm Calm - N/A   Overcast
5:27 PM 44.1 °F 42.5 °F 39.9 °F 85% 29.96 in 9.0 mi SSE 3.5 mph - N/A   Overcast
5:37 PM 43.0 °F 41.3 °F 39.9 °F 89% 29.96 in 10.0 mi SSE 3.5 mph - N/A   Overcast
5:45 PM 43.0 °F - 39.9 °F 89% 29.96 in 9.0 mi Calm Calm - N/A   Overcast
5:53 PM 43.0 °F 41.3 °F 39.9 °F 89% 29.99 in 8.0 mi South 3.5 mph - N/A   Overcast
9:01 PM 42.8 °F - 41.0 °F 93% 30.01 in 5.0 mi Calm Calm - N/A   Overcast
9:57 PM 44.6 °F - 41.0 °F 87% 30.02 in 5.0 mi Calm Calm - N/A   Overcast